This is the latest recevied weather packets stored in our database for station/object KB7STN. If no packets are shown the sender has not sent any weather packets the latest 10 day(s).
| Time | Temp. | Humidity | Pressure | Rain* | Wind** | Luminosity | Snow |
|---|---|---|---|---|---|---|---|
| 1788108395 | 20.56° C | 60% | 1022.4 hPa | 0 mm | - | - | - |
| 1788108095 | 20.56° C | 63% | 1022.3 hPa | 0 mm | - | - | - |
| 1788107795 | 20.56° C | 62% | 1022.3 hPa | 0 mm | - | - | - |
| 1788107495 | 20.56° C | 63% | 1022.3 hPa | 0 mm | - | - | - |
| 1788107195 | 20.56° C | 66% | 1022.2 hPa | 0 mm | - | - | - |
| 1788106895 | 20° C | 64% | 1021.9 hPa | 0 mm | - | - | - |
| 1788106595 | 19.44° C | 67% | 1022 hPa | 0 mm | - | - | - |
| 1788106295 | 19.44° C | 70% | 1022.1 hPa | 0 mm | - | - | - |
| 1788105995 | 18.89° C | 71% | 1022.2 hPa | 0 mm | - | - | - |
| 1788105105 | 18.33° C | 79% | 1022.2 hPa | 0 mm | - | - | - |
| 1788104795 | 17.78° C | 81% | 1022.2 hPa | 0 mm | - | - | - |
| 1788104495 | 17.78° C | 82% | 1022.2 hPa | 0 mm | - | - | - |
| 1788104195 | 17.22° C | 82% | 1022.3 hPa | 0 mm | - | - | - |
| 1788103895 | 17.22° C | 84% | 1022.3 hPa | 0 mm | - | - | - |
| 1788103595 | 17.22° C | 84% | 1022.2 hPa | 0 mm | - | - | - |
| 1788103295 | 17.22° C | 84% | 1022.1 hPa | 0 mm | - | - | - |
| 1788103000 | 16.67° C | 83% | 1022.2 hPa | 0 mm | - | - | - |
| 1788102695 | 16.67° C | 84% | 1022.2 hPa | 0 mm | - | - | - |
| 1788102395 | 16.67° C | 88% | 1022.3 hPa | 0 mm | - | - | - |
| 1788102095 | 16.67° C | 88% | 1022.4 hPa | 0 mm | - | - | - |
| 1788101795 | 16.11° C | 87% | 1022.3 hPa | 0 mm | - | - | - |
| 1788101495 | 16.11° C | 86% | 1022.1 hPa | 0 mm | - | - | - |
| 1788101195 | 16.11° C | 87% | 1022.2 hPa | 0 mm | - | - | - |
| 1788100895 | 16.11° C | 88% | 1022.2 hPa | 0 mm | - | - | - |
| 1788100596 | 15.56° C | 90% | 1022.1 hPa | 0 mm | - | - | - |
* Rain latest hour (hover to see other rain measurements)
** Current wind speed in m/s (hover to see current wind gust speed)